Location: Pabrico
(37.5827°N, 122.0063°W)
Time: 10:18:44
(UTC+00:00)

CRYOSAT 2 - Pass Details

Date: 13 April 2024
Orbit: 716 x 722 km, 92.0° (Epoch: 23 May)

Event Time Altitude Azimuth Distance (km) Brightness Sun altitude
Rises 12:34:39 0° 1° (N) 3,134 8.0 -12.2°
Reaches altitude 10° 12:36:58 10° 358° (N) 2,209 7.1 -11.8°
Maximum altitude 12:41:47 63° 278° (W) 803 4.4 -10.9°
Drops below altitude 10° 12:46:33 10° 198° (SSW) 2,192 6.5 -10.0°
Sets 12:48:51 0° 195° (SSW) 3,107 7.3 -9.6°
